Location: Unspecified
(43.4680°N, 87.1740°E)
Time: 04:49:18
(UTC+00:00)

Lacrosse 5 rocket - Pass Details

Date: 17 April 2021
Orbit: 460 x 634 km, 57.0° (Epoch: 16 May)

Event Time Altitude Azimuth Distance (km) Brightness Sun altitude
Rises 14:45:43 0° 284° (WNW) 2,679 6.1 -18.6°
Reaches altitude 10° 14:48:36 10° 306° (NW) 1,829 5.2 -19.0°
Maximum altitude 14:51:14 16° 346° (NNW) 1,510 4.2 -19.4°
Drops below altitude 10° 14:53:57 10° 25° (NNE) 1,901 4.2 -19.8°
Sets 14:57:03 0° 47° (NE) 2,841 4.9 -20.2°
